• In Slovakia
  • List of Countries
  • For 7 days
  • Water Temperature
  • Satellite Maps
  • Weather Map
  • Weather Widgets
  • user-avatar
    Login

    Hourly Weather Comayagua

    Today, 20 May, Sunday

    Time Temperature Precipitation Wind Pressure Humidity
    00:00 +23°C° 0 mm 0 mps 707 mmHg 91%
    01:00 +22°C° 0.5 mm 0 mps 707 mmHg 92%
    02:00 +22°C° 0.5 mm 0 mps 707 mmHg 92%
    03:00 +22°C° 0.5 mm 0 mps 707 mmHg 93%
    04:00 +22°C° 0 mm 0 mps 707 mmHg 93%
    05:00 +22°C° 0 mm 0 mps 707 mmHg 92%
    06:00 +22°C° 0 mm 0 mps 707 mmHg 91%
    07:00 +25°C° 0 mm 0 mps 708 mmHg 81%
    08:00 +27°C° 0 mm 0 mps 708 mmHg 70%
    09:00 +32°C° 0 mm 1 mps 709 mmHg 60%
    10:00 +33°C° 0.2 mm 1 mps 708 mmHg 54%
    11:00 +34°C° 0.2 mm 1 mps 708 mmHg 48%
    12:00 +36°C° 0.2 mm 2 mps 708 mmHg 42%
    13:00 +36°C° 0.5 mm 2 mps 707 mmHg 43%
    14:00 +35°C° 0.5 mm 2 mps 706 mmHg 45%
    15:00 +35°C° 0.5 mm 2 mps 706 mmHg 46%
    16:00 +32°C° 0.6 mm 2 mps 706 mmHg 52%
    17:00 +31°C° 0.6 mm 2 mps 706 mmHg 58%
    18:00 +30°C° 0.6 mm 1 mps 706 mmHg 65%
    19:00 +28°C° 1.2 mm 1 mps 706 mmHg 73%
    20:00 +27°C° 1.2 mm 1 mps 707 mmHg 81%
    21:00 +25°C° 1.2 mm 1 mps 707 mmHg 89%
    22:00 +25°C° 0.9 mm 1 mps 707 mmHg 90%
    23:00 +23°C° 0.9 mm 0 mps 707 mmHg 92%

    Tomorrow, 21 May, Monday

    Time Temperature Precipitation Wind Pressure Humidity
    00:00 +22°C° 0.9 mm 0 mps 707 mmHg 93%
    01:00 +22°C° 0.1 mm 0 mps 707 mmHg 94%
    02:00 +22°C° 0.1 mm 0 mps 706 mmHg 94%
    03:00 +21°C° 0.1 mm 0 mps 706 mmHg 95%
    04:00 +22°C° 0 mm 0 mps 706 mmHg 94%
    05:00 +22°C° 0 mm 0 mps 706 mmHg 93%
    06:00 +22°C° 0 mm 0 mps 706 mmHg 93%
    07:00 +24°C° 0 mm 0 mps 707 mmHg 81%
    08:00 +27°C° 0 mm 0 mps 707 mmHg 69%
    09:00 +30°C° 0 mm 0 mps 708 mmHg 58%
    10:00 +33°C° 0.1 mm 1 mps 708 mmHg 52%
    11:00 +34°C° 0.1 mm 1 mps 708 mmHg 46%
    12:00 +37°C° 0.1 mm 2 mps 707 mmHg 40%
    13:00 +36°C° 0.5 mm 2 mps 707 mmHg 41%
    14:00 +36°C° 0.5 mm 2 mps 706 mmHg 42%
    15:00 +36°C° 0.5 mm 2 mps 705 mmHg 43%
    16:00 +34°C° 0.6 mm 2 mps 705 mmHg 51%
    17:00 +31°C° 0.6 mm 2 mps 705 mmHg 58%
    18:00 +29°C° 0.6 mm 1 mps 706 mmHg 66%
    19:00 +28°C° 1.6 mm 1 mps 706 mmHg 73%
    20:00 +27°C° 1.6 mm 1 mps 706 mmHg 80%
    21:00 +25°C° 1.6 mm 1 mps 707 mmHg 88%
    22:00 +23°C° 0.7 mm 0 mps 707 mmHg 89%
    23:00 +23°C° 0.7 mm 0 mps 707 mmHg 91%

    Day after tomorrow, 22 May, Tuesday

    Time Temperature Precipitation Wind Pressure Humidity
    00:00 +22°C° 0.7 mm 0 mps 707 mmHg 93%
    01:00 +22°C° 0.1 mm 0 mps 706 mmHg 93%
    02:00 +22°C° 0.1 mm 0 mps 706 mmHg 94%
    03:00 +21°C° 0.1 mm 0 mps 705 mmHg 94%
    04:00 +21°C° 0 mm 0 mps 706 mmHg 93%
    05:00 +21°C° 0 mm 0 mps 706 mmHg 92%
    06:00 +21°C° 0 mm 0 mps 706 mmHg 91%
    07:00 +24°C° 0 mm 0 mps 707 mmHg 79%
    08:00 +27°C° 0 mm 0 mps 707 mmHg 68%
    09:00 +31°C° 0 mm 1 mps 708 mmHg 56%
    10:00 +33°C° 0 mm 1 mps 708 mmHg 50%
    11:00 +34°C° 0 mm 1 mps 707 mmHg 44%
    12:00 +36°C° 0 mm 2 mps 707 mmHg 38%
    13:00 +36°C° 0.4 mm 2 mps 707 mmHg 39%
    14:00 +36°C° 0.4 mm 2 mps 706 mmHg 40%
    15:00 +35°C° 0.4 mm 2 mps 705 mmHg 41%
    16:00 +34°C° 0.3 mm 2 mps 705 mmHg 48%
    17:00 +31°C° 0.3 mm 1 mps 705 mmHg 55%
    18:00 +29°C° 0.3 mm 1 mps 706 mmHg 62%
    19:00 +28°C° 0.3 mm 1 mps 706 mmHg 68%
    20:00 +27°C° 0.3 mm 1 mps 707 mmHg 74%
    21:00 +26°C° 0.3 mm 1 mps 707 mmHg 80%
    22:00 +24°C° 0.3 mm 0 mps 707 mmHg 82%
    23:00 +23°C° 0.3 mm 0 mps 707 mmHg 83%

    23 May, Wednesday

    Time Temperature Precipitation Wind Pressure Humidity
    00:00 +23°C° 0.3 mm 0 mps 707 mmHg 85%
    01:00 +23°C° 0.1 mm 0 mps 707 mmHg 86%
    02:00 +22°C° 0.1 mm 0 mps 706 mmHg 86%
    03:00 +22°C° 0.1 mm 0 mps 706 mmHg 87%
    04:00 +22°C° 0 mm 0 mps 706 mmHg 86%
    05:00 +22°C° 0 mm 0 mps 706 mmHg 84%
    06:00 +23°C° 0 mm 0 mps 707 mmHg 83%
    07:00 +25°C° 0 mm 0 mps 707 mmHg 74%
    08:00 +29°C° 0 mm 1 mps 708 mmHg 64%
    09:00 +31°C° 0 mm 1 mps 708 mmHg 55%
    10:00 +32°C° 0 mm 1 mps 708 mmHg 51%
    11:00 +33°C° 0 mm 1 mps 708 mmHg 47%
    12:00 +35°C° 0 mm 2 mps 708 mmHg 43%
    13:00 +35°C° 0.3 mm 2 mps 707 mmHg 43%
    14:00 +35°C° 0.3 mm 2 mps 706 mmHg 44%
    15:00 +35°C° 0.3 mm 2 mps 706 mmHg 44%
    16:00 +32°C° 0.6 mm 2 mps 706 mmHg 50%
    17:00 +31°C° 0.6 mm 1 mps 706 mmHg 56%
    18:00 +29°C° 0.6 mm 1 mps 706 mmHg 62%
    19:00 +28°C° 0.4 mm 1 mps 707 mmHg 67%
    20:00 +27°C° 0.4 mm 1 mps 708 mmHg 71%
    21:00 +24°C° 0.4 mm 0 mps 708 mmHg 76%
    22:00 +24°C° 0.3 mm 0 mps 708 mmHg 78%
    23:00 +23°C° 0.3 mm 0 mps 708 mmHg 79%

    24 May, Thursday

    Time Temperature Precipitation Wind Pressure Humidity
    00:00 +23°C° 0.3 mm 0 mps 707 mmHg 81%
    01:00 +23°C° 0.1 mm 0 mps 707 mmHg 82%
    02:00 +22°C° 0.1 mm 0 mps 707 mmHg 83%
    03:00 +22°C° 0.1 mm 0 mps 706 mmHg 84%
    04:00 +22°C° 0 mm 0 mps 707 mmHg 83%
    05:00 +22°C° 0 mm 0 mps 707 mmHg 82%
    06:00 +22°C° 0 mm 0 mps 707 mmHg 81%
    07:00 +27°C° 0 mm 1 mps 708 mmHg 72%
    08:00 +29°C° 0 mm 1 mps 709 mmHg 63%
    09:00 +31°C° 0 mm 1 mps 709 mmHg 55%
    10:00 +32°C° 0.2 mm 1 mps 709 mmHg 52%
    11:00 +34°C° 0.2 mm 2 mps 708 mmHg 48%
    12:00 +35°C° 0.2 mm 2 mps 708 mmHg 45%
    13:00 +35°C° 0.5 mm 2 mps 707 mmHg 47%
    14:00 +34°C° 0.5 mm 2 mps 707 mmHg 49%
    15:00 +34°C° 0.5 mm 2 mps 706 mmHg 51%
    16:00 +32°C° 0.7 mm 2 mps 706 mmHg 56%
    17:00 +31°C° 0.7 mm 1 mps 707 mmHg 61%
    18:00 +29°C° 0.7 mm 1 mps 707 mmHg 66%
    19:00 +28°C° 0.9 mm 1 mps 707 mmHg 71%
    20:00 +27°C° 0.9 mm 1 mps 708 mmHg 77%
    21:00 +26°C° 0.9 mm 1 mps 708 mmHg 82%
    22:00 +24°C° 0.8 mm 0 mps 708 mmHg 84%
    23:00 +23°C° 0.8 mm 0 mps 707 mmHg 85%

    25 May, Friday

    Time Temperature Precipitation Wind Pressure Humidity
    00:00 +23°C° 0.8 mm 0 mps 707 mmHg 87%
    01:00 +23°C° 0.4 mm 0 mps 707 mmHg 88%
    02:00 +22°C° 0.4 mm 0 mps 706 mmHg 89%
    03:00 +22°C° 0.4 mm 0 mps 706 mmHg 90%
    04:00 +22°C° 0.1 mm 0 mps 706 mmHg 89%
    05:00 +22°C° 0.1 mm 0 mps 707 mmHg 88%
    06:00 +22°C° 0.1 mm 0 mps 707 mmHg 87%
    07:00 +27°C° 0.1 mm 1 mps 707 mmHg 77%
    08:00 +29°C° 0.1 mm 1 mps 708 mmHg 68%
    09:00 +32°C° 0.1 mm 1 mps 708 mmHg 58%
    10:00 +33°C° 0.5 mm 1 mps 708 mmHg 54%
    11:00 +34°C° 0.5 mm 1 mps 707 mmHg 51%
    12:00 +36°C° 0.5 mm 2 mps 707 mmHg 48%
    13:00 +33°C° 1.1 mm 1 mps 706 mmHg 55%
    14:00 +32°C° 1.1 mm 1 mps 706 mmHg 62%
    15:00 +30°C° 1.1 mm 1 mps 705 mmHg 69%
    16:00 +29°C° 2.7 mm 1 mps 705 mmHg 74%
    17:00 +28°C° 2.7 mm 1 mps 705 mmHg 79%
    18:00 +27°C° 2.7 mm 1 mps 705 mmHg 85%
    19:00 +27°C° 4.2 mm 1 mps 706 mmHg 86%
    20:00 +26°C° 4.2 mm 1 mps 706 mmHg 88%
    21:00 +26°C° 4.2 mm 1 mps 707 mmHg 90%
    22:00 +26°C° 7 mm 1 mps 707 mmHg 91%
    23:00 +25°C° 7 mm 1 mps 707 mmHg 92%
    Show more